Météo Nord-Pas-de-Calais   La météo au plus près de chez vous

Station météorologique

Observations météo à Batz (29082)

29082001 32 m Dernier relevé à 12:48
21.6°C
Vent 19.8 km/h

Journée consultée

Mercredi 2 Septembre 2026

Synthèse de la journée

Périodes de référence en UTC

Température maximale

21.6°C

à 12:48

06h 06h

Température minimale

15.1°C

à 07:06

18h 18h

Rafale maximale

44 km/h

à 10:06

00h 00h

Précipitations

0 mm

Cumul quotidien

06h 06h

Graphiques de la journée

Heure locale Réduire

Données détaillées

Relevés météo

Pas de 6 minutes Afficher les relevés infra-horaires
Relevés météo détaillés à Batz pour le Mercredi 2 Septembre 2026
Heure Température °C Vent moyen (raf.), km/h Précipitations mm
12:48 21.6 °C 23 km/h (36 km/h) 0 mm0 mm
12:42 21.1 °C 23 km/h (36 km/h) 0 mm0 mm
12:36 20.9 °C 24 km/h (37 km/h) 0 mm0 mm
12:30 20.9 °C 23 km/h (37 km/h) 0 mm0 mm
12:24 20.7 °C 22 km/h (35 km/h) 0 mm0 mm
12:18 20.7 °C 23 km/h (35 km/h) 0 mm0 mm
12:12 20.9 °C 22 km/h (33 km/h) 0 mm0 mm
12:06 20.9 °C 20 km/h (33 km/h) 0 mm0 mm
12:00 20.9 °C 21 km/h (31 km/h) 0 mm0 mm
11:54 20.8 °C 22 km/h (33 km/h) 0 mm0 mm
11:48 20.8 °C 20 km/h (33 km/h) 0 mm0 mm
11:42 20.4 °C 20 km/h (28 km/h) 0 mm0 mm
11:36 20.2 °C 21 km/h (35 km/h) 0 mm0 mm
11:30 20.1 °C 20 km/h (32 km/h) 0 mm0 mm
11:24 19.9 °C 21 km/h (31 km/h) 0 mm0 mm
11:18 19.7 °C 21 km/h (35 km/h) 0 mm0 mm
11:12 19.5 °C 24 km/h (35 km/h) 0 mm0 mm
11:06 19.3 °C 24 km/h (35 km/h) 0 mm0 mm
11:00 19.2 °C 26 km/h (37 km/h) 0 mm0 mm
10:54 19.1 °C 25 km/h (37 km/h) 0 mm0 mm
10:48 19 °C 25 km/h (37 km/h) 0 mm0 mm
10:42 18.9 °C 27 km/h (40 km/h) 0 mm0 mm
10:36 18.6 °C 29 km/h (40 km/h) 0 mm0 mm
10:30 18.4 °C 29 km/h (39 km/h) 0 mm0 mm
10:24 18.3 °C 30 km/h (39 km/h) 0 mm0 mm
10:18 18.1 °C 30 km/h (39 km/h) 0 mm0 mm
10:12 17.8 °C 31 km/h (44 km/h) 0 mm0 mm
10:06 17.6 °C 29 km/h (44 km/h) 0 mm0 mm
10:00 17.5 °C 28 km/h (39 km/h) 0 mm0 mm
09:54 17.4 °C 28 km/h (39 km/h) 0 mm0 mm
09:48 17.2 °C 27 km/h (36 km/h) 0 mm0 mm
09:42 17.1 °C 27 km/h (36 km/h) 0 mm0 mm
09:36 16.8 °C 26 km/h (38 km/h) 0 mm0 mm
09:30 16.6 °C 26 km/h (33 km/h) 0 mm0 mm
09:24 16.5 °C 26 km/h (33 km/h) 0 mm0 mm
09:18 16.4 °C 24 km/h (33 km/h) 0 mm0 mm
09:12 16.3 °C 23 km/h (32 km/h) 0 mm0 mm
09:06 16.1 °C 24 km/h (31 km/h) 0 mm0 mm
09:00 16 °C 24 km/h (31 km/h) 0 mm0 mm
08:54 15.8 °C 23 km/h (29 km/h) 0 mm0 mm
08:48 15.7 °C 22 km/h (27 km/h) 0 mm0 mm
08:42 15.7 °C 21 km/h (26 km/h) 0 mm0 mm
08:36 15.6 °C 22 km/h (28 km/h) 0 mm0 mm
08:30 15.6 °C 23 km/h (28 km/h) 0 mm0 mm
08:24 15.5 °C 22 km/h (27 km/h) 0 mm0 mm
08:18 15.5 °C 21 km/h (27 km/h) 0 mm0 mm
08:12 15.4 °C 21 km/h (26 km/h) 0 mm0 mm
08:06 15.4 °C 20 km/h (25 km/h) 0 mm0 mm
08:00 15.3 °C 20 km/h (25 km/h) 0 mm0 mm
07:54 15.3 °C 20 km/h (25 km/h) 0 mm0 mm
07:48 15.3 °C 19 km/h (24 km/h) 0 mm0 mm
07:42 15.2 °C 18 km/h (24 km/h) 0 mm0 mm
07:36 15.2 °C 18 km/h (23 km/h) 0 mm0 mm
07:30 15.2 °C 15 km/h (22 km/h) 0 mm0 mm
07:24 15.1 °C 14 km/h (19 km/h) 0 mm0 mm
07:18 15.1 °C 14 km/h (20 km/h) 0 mm0 mm
07:12 15.1 °C 15 km/h (20 km/h) 0 mm0 mm
07:06 15.1 °C 15 km/h (22 km/h) 0 mm0 mm
07:00 15.2 °C 15 km/h (20 km/h) 0 mm0 mm
06:54 15.2 °C 16 km/h (23 km/h) 0 mm0 mm
06:48 15.2 °C 18 km/h (24 km/h) 0 mm0 mm
06:42 15.2 °C 18 km/h (24 km/h) 0 mm0 mm
06:36 15.3 °C 18 km/h (24 km/h) 0 mm0 mm
06:30 15.2 °C 17 km/h (22 km/h) 0 mm0 mm
06:24 15.2 °C 16 km/h (22 km/h) 0 mm0 mm
06:18 15.2 °C 17 km/h (23 km/h) 0 mm0 mm
06:12 15.3 °C 17 km/h (23 km/h) 0 mm0 mm
06:06 15.2 °C 16 km/h (22 km/h) 0 mm0 mm
06:00 15.3 °C 18 km/h (24 km/h) 0 mm0 mm
05:54 15.4 °C 18 km/h (23 km/h) 0 mm0 mm
05:48 15.4 °C 19 km/h (26 km/h) 0 mm0 mm
05:42 15.5 °C 21 km/h (26 km/h) 0 mm0 mm
05:36 15.5 °C 21 km/h (26 km/h) 0 mm0 mm
05:30 15.5 °C 19 km/h (26 km/h) 0 mm0 mm
05:24 15.5 °C 19 km/h (25 km/h) 0 mm0 mm
05:18 15.6 °C 19 km/h (24 km/h) 0 mm0 mm
05:12 15.6 °C 18 km/h (23 km/h) 0 mm0 mm
05:06 15.6 °C 17 km/h (22 km/h) 0 mm0 mm
05:00 15.7 °C 18 km/h (24 km/h) 0 mm0 mm
04:54 15.8 °C 19 km/h (24 km/h) 0 mm0 mm
04:48 15.7 °C 18 km/h (24 km/h) 0 mm0 mm
04:42 15.8 °C 17 km/h (22 km/h) 0 mm0 mm
04:36 15.8 °C 17 km/h (23 km/h) 0 mm0 mm
04:30 15.8 °C 15 km/h (23 km/h) 0 mm0 mm
04:24 15.7 °C 14 km/h (21 km/h) 0 mm0 mm
04:18 15.7 °C 14 km/h (23 km/h) 0 mm0 mm
04:12 15.7 °C 13 km/h (23 km/h) 0 mm0 mm
04:06 15.6 °C 13 km/h (20 km/h) 0 mm0 mm
04:00 15.6 °C 13 km/h (19 km/h) 0 mm0 mm
03:54 15.5 °C 12 km/h (19 km/h) 0 mm0 mm
03:48 15.5 °C 12 km/h (17 km/h) 0 mm0 mm
03:42 15.6 °C 12 km/h (17 km/h) 0 mm0 mm
03:36 15.5 °C 12 km/h (15 km/h) 0 mm0 mm
03:30 15.5 °C 10 km/h (14 km/h) 0 mm0 mm
03:24 15.6 °C 10 km/h (13 km/h) 0 mm0 mm
03:18 15.6 °C 10 km/h (13 km/h) 0 mm0 mm
03:12 15.7 °C 9 km/h (14 km/h) 0 mm0 mm
03:06 15.7 °C 9 km/h (14 km/h) 0 mm0 mm
03:00 15.8 °C 10 km/h (14 km/h) 0 mm0 mm
02:54 15.8 °C 12 km/h (17 km/h) 0 mm0 mm
02:48 15.9 °C 11 km/h (17 km/h) 0 mm0 mm
02:42 15.9 °C 9 km/h (15 km/h) 0 mm0 mm
02:36 15.9 °C 10 km/h (14 km/h) 0 mm0 mm
02:30 15.9 °C 9 km/h (15 km/h) 0 mm0 mm
02:24 15.9 °C 10 km/h (15 km/h) 0 mm0 mm
02:18 16 °C 10 km/h (15 km/h) 0 mm0 mm
02:12 16 °C 12 km/h (15 km/h) 0 mm0 mm
02:06 16.1 °C 12 km/h (19 km/h) 0 mm0 mm
02:00 16.1 °C 12 km/h (17 km/h) 0 mm0 mm
01:54 16.1 °C 13 km/h (18 km/h) 0 mm0 mm
01:48 16 °C 13 km/h (17 km/h) 0 mm0 mm
01:42 16 °C 12 km/h (18 km/h) 0 mm0 mm
01:36 16 °C 12 km/h (18 km/h) 0 mm0 mm
01:30 16.1 °C 12 km/h (16 km/h) 0 mm0 mm
01:24 16.1 °C 12 km/h (18 km/h) 0 mm0 mm
01:18 16.1 °C 13 km/h (18 km/h) 0 mm0 mm
01:12 16.1 °C 14 km/h (18 km/h) 0 mm0 mm
01:06 16.1 °C 14 km/h (18 km/h) 0 mm0 mm
01:00 16.2 °C 13 km/h (18 km/h) 0 mm0 mm
00:54 16.2 °C 13 km/h (15 km/h) 0 mm0 mm
00:48 16.2 °C 13 km/h (17 km/h) 0 mm0 mm
00:42 16.2 °C 14 km/h (17 km/h) 0 mm0 mm
00:36 16.2 °C 14 km/h (18 km/h) 0 mm0 mm
00:30 16.3 °C 14 km/h (17 km/h) 0 mm0 mm
00:24 16.3 °C 13 km/h (17 km/h) 0 mm0 mm
00:18 16.3 °C 12 km/h (17 km/h) 0 mm0 mm
00:12 16.4 °C 12 km/h (17 km/h) 0 mm0 mm
00:06 16.5 °C 13 km/h (16 km/h) 0 mm0 mm
00:00 16.4 °C 13 km/h (17 km/h) 0 mm0 mm

Données via Météo-France

Relevés météo à Batz

Cette page rassemble les observations de la station de Batz : température, humidité, vent, précipitations et pression atmosphérique. Les graphiques facilitent le suivi de la journée, tandis que le tableau donne accès aux mesures horaires et infra-horaires disponibles.

Pour replacer ces mesures dans leur contexte, consultez la climatologie de Batz ainsi que ses normales et records. Retrouvez aussi la carte des observations météo en temps réel.